Regional Weather Roundup
Issued by NWS

Home | Current Version | Previous Version | Graphics & Text | Print | Product List | Glossary On
Versions: 1 2 3 4 5 6 7 8 9 10 11 12 13 14 15 16 17 18 19 20 21 22 23 24 25 26 27 28 29 30 31 32 33 34 35 36 37 38 39 40 41 42 43 44 45 46 47 48 49 50
000
ASUS43 KTOP 221959
RWRKS

WEATHER ROUNDUP FOR KANSAS
NATIONAL WEATHER SERVICE GOODLAND KS
300 PM CDT FRI SEP 22 2017

NOTE:  "FAIR" INDICATES FEW OR NO CLOUDS BELOW 12,000 FEET WITH NO
SIGNIFICANT WEATHER AND/OR OBSTRUCTIONS TO VISIBILITY.

KSZ001>006-013>018-027>032-041>047-222100-
NORTHWEST KANSAS

CITY           SKY/WX    TMP DP  RH WIND       PRES   REMARKS
GOODLAND       CLOUDY    92  42  17 S33G47    29.75F
HAYS           SUNNY     97  55  24 S24G35    29.78F HX  95
HILL CITY      CLOUDY    97  56  25 S25G36    29.76F HX  95
RUSSELL        SUNNY     97  63  32 S21G30    29.79F HX  98
$$

KSZ061>065-074>080-084>089-222100-
SOUTHWEST KANSAS

CITY           SKY/WX    TMP DP  RH WIND       PRES   REMARKS
DODGE CITY     SUNNY     97  55  24 S29G37    29.83F HX  95
ELKHART          N/A     91  63  39 S20         N/A
GARDEN CITY    CLOUDY    90  55  30 S22G33    29.81F
GREAT BEND     SUNNY     95  64  35 S24G36    29.82F HX  97
LIBERAL        CLOUDY    93  58  30 S29G38    29.82F
$$

KSZ066>073-081>083-090>101-222100-
SOUTHEAST KANSAS

CITY           SKY/WX    TMP DP  RH WIND       PRES   REMARKS
CHANUTE        MOSUNNY   89  68  49 S17G26    29.96S
COFFEYVILLE    SUNNY     90  69  50 S15G22    29.95S
HUTCHINSON     SUNNY     94  67  41 S22G33    29.85F HX  97
MEDICINE LODGE   N/A     93  65  39 S22G30    29.83F HX  95
NEWTON         MOSUNNY   91  69  48 S18G30    29.89F HX  96
PARSONS        SUNNY     90  67  46 S13G21    29.96
WICHITA INTL   MOSUNNY   92  69  47 S24G36    29.87F HX  97
WICHITA JABRA  MOSUNNY   90  69  50 S20G28    29.89F
WINFIELD       MOSUNNY   93  69  45 S17G26    29.91F HX  98
$$

KSZ007>012-019>026-033>040-048>060-102>105-222100-
NORTHEAST KANSAS

CITY           SKY/WX    TMP DP  RH WIND       PRES   REMARKS
CONCORDIA      SUNNY     92  68  45 S20G29    29.82F HX  96
EMPORIA        SUNNY     89  68  49 S16G31    29.91F
LAWRENCE       SUNNY     90  70  51 SE20G26   29.92F HX  95
MANHATTAN      MOSUNNY   97  68  38 S16G26    29.84F HX 102
OLATHE IND     MOSUNNY   88  70  55 S17G24    29.96F
OLATHE EXE     SUNNY     86  70  58 S15       29.96F
SALINA         SUNNY     98  66  34 S21G31    29.82F HX 101
TOPEKA BILLARD SUNNY     91  71  51 S15       29.90F HX  97
TOPEKA FORBES  SUNNY     91  70  49 S16       29.91F HX  96
$$



USA.gov is the U.S. government's official web portal to all federal, state and local government web resources and services.